Regional Weather Roundup
Issued by NWS

Home | Current Version | Previous Version | Text Only | Print | Product List | Glossary On
Versions: 1 2 3 4 5 6 7 8 9 10 11 12 13 14 15 16 17 18 19 20 21 22 23 24 25 26 27 28 29 30 31 32 33 34 35 36 37 38 39 40 41 42 43 44 45 46 47 48 49 50
748
ASUS43 KTOP 262008
RWRKS

WEATHER ROUNDUP FOR KANSAS
NATIONAL WEATHER SERVICE GOODLAND KS
300 PM CDT WED APR 26 2017

NOTE:  "FAIR" INDICATES FEW OR NO CLOUDS BELOW 12,000 FEET WITH NO
SIGNIFICANT WEATHER AND/OR OBSTRUCTIONS TO VISIBILITY.

KSZ001>006-013>018-027>032-041>047-262100-
NORTHWEST KANSAS

CITY           SKY/WX    TMP DP  RH WIND       PRES   REMARKS
GOODLAND       SUNNY     54  30  40 N17G33    29.73F
HAYS           PTSUNNY   53  33  46 N17G23    29.73S
HILL CITY      PTSUNNY   55  32  41 N13G23    29.74S
RUSSELL        PTSUNNY   52  33  48 N15G25    29.71F
$$

KSZ061>065-074>080-084>089-262100-
SOUTHWEST KANSAS

CITY           SKY/WX    TMP DP  RH WIND       PRES   REMARKS
DODGE CITY     MOSUNNY   55  32  41 N20G26    29.73F
ELKHART          N/A     54  30  40 NW16        N/A
GARDEN CITY    SUNNY     56  31  38 N17G28    29.74S
GREAT BEND     PTSUNNY   54  36  50 NW16G24   29.71F
LIBERAL        MOSUNNY   57  34  41 N17G25    29.76S
PRATT          CLOUDY    51  33  50 NW15G24   29.72S
$$

KSZ066>073-081>083-090>101-262100-
SOUTHEAST KANSAS

CITY           SKY/WX    TMP DP  RH WIND       PRES   REMARKS
CHANUTE        CLOUDY    47  40  76 NW10      29.64R
COFFEYVILLE    CLOUDY    49  42  77 N15       29.62F
HUTCHINSON     CLOUDY    55  36  48 NW17G23   29.70R
MEDICINE LODGE   N/A     52  34  50 N15G23    29.71S
NEWTON         CLOUDY    54  39  57 NW20G25   29.68F
PARSONS        CLOUDY    47  41  80 NW13      29.64S
WICHITA INTL   CLOUDY    53  37  54 N16G25    29.68F
WICHITA JABRA  CLOUDY    49  36  61 NW14      29.68S
WICHITA MCCONL CLOUDY    50  36  58 NW17      29.68S
WINFIELD       CLOUDY    53  40  61 N14G21    29.69S
$$

KSZ007>012-019>026-033>040-048>060-102>105-262100-
NORTHEAST KANSAS

CITY           SKY/WX    TMP DP  RH WIND       PRES   REMARKS
CONCORDIA      CLOUDY    49  36  61 N16G26    29.70S
EMPORIA        CLOUDY    51  39  63 NW15      29.63F
LAWRENCE       CLOUDY    51  40  65 N14       29.62F
MANHATTAN      CLOUDY    51  35  54 N13G20    29.67F
MARYSVILLE     CLOUDY    46  34  61 N15G22    29.69R
OLATHE IND     LGT RAIN  47  41  80 N15       29.61F
OLATHE EXE     LGT RAIN  46  41  82 N12       29.60F
SALINA         CLOUDY    53  35  50 NW18      29.70R
TOPEKA BILLARD CLOUDY    53  40  61 NW13      29.63F
TOPEKA FORBES  CLOUDY    53  38  56 N15       29.62F
$$




USA.gov is the U.S. government's official web portal to all federal, state and local government web resources and services.